TimePDT,TemperatureF,Dew PointF,Humidity,Sea Level PressureIn,VisibilityMPH,Wind Direction,Wind SpeedMPH,Gust SpeedMPH,PrecipitationIn,Events,Conditions,WindDirDegrees,DateUTC
12:56 AM,30.9,28.0,89,30.14,10.0,SSE,5.8,-,N/A,,Clear,160,2013-03-16 07:56:00
1:56 AM,32.0,28.0,85,30.13,10.0,South,6.9,-,N/A,,Clear,170,2013-03-16 08:56:00
2:56 AM,32.0,28.0,85,30.12,10.0,SSE,6.9,-,N/A,,Clear,160,2013-03-16 09:56:00
3:56 AM,30.0,27.0,88,30.11,10.0,Calm,Calm,-,N/A,,Clear,0,2013-03-16 10:56:00
4:56 AM,27.0,24.1,89,30.11,10.0,Calm,Calm,-,N/A,,Clear,0,2013-03-16 11:56:00
5:56 AM,25.0,23.0,92,30.12,10.0,Calm,Calm,-,N/A,,Clear,0,2013-03-16 12:56:00
6:56 AM,27.0,25.0,92,30.10,10.0,SSE,4.6,-,N/A,,Clear,150,2013-03-16 13:56:00
7:56 AM,27.0,24.1,89,30.10,10.0,ENE,5.8,-,N/A,,Clear,60,2013-03-16 14:56:00
8:56 AM,34.0,30.0,85,30.07,10.0,Calm,Calm,-,N/A,,Clear,0,2013-03-16 15:56:00
9:56 AM,44.1,32.0,63,30.07,10.0,NNE,3.5,-,N/A,,Clear,20,2013-03-16 16:56:00
10:56 AM,48.0,30.9,52,30.07,10.0,NE,6.9,-,N/A,,Clear,40,2013-03-16 17:56:00
11:56 AM,50.0,28.0,43,30.05,10.0,North,8.1,-,N/A,,Partly Cloudy,10,2013-03-16 18:56:00
12:56 PM,52.0,26.1,37,30.02,10.0,Calm,Calm,-,N/A,,Partly Cloudy,0,2013-03-16 19:56:00
1:56 PM,50.0,28.0,43,29.99,10.0,NNW,12.7,-,N/A,,Overcast,330,2013-03-16 20:56:00
2:56 PM,45.0,27.0,49,29.99,10.0,WNW,23.0,28.8,N/A,,Overcast,300,2013-03-16 21:56:00
3:56 PM,50.0,28.9,44,29.97,10.0,WNW,13.8,21.9,N/A,,Overcast,290,2013-03-16 22:56:00
4:56 PM,48.0,27.0,44,29.96,10.0,WNW,6.9,-,N/A,,Overcast,290,2013-03-16 23:56:00
5:56 PM,50.0,25.0,38,29.95,10.0,WSW,12.7,-,N/A,,Scattered Clouds,240,2013-03-17 00:56:00
6:56 PM,45.0,25.0,46,29.95,10.0,West,11.5,-,N/A,,Clear,260,2013-03-17 01:56:00
7:56 PM,42.1,25.0,51,29.96,10.0,West,11.5,17.3,N/A,,Clear,260,2013-03-17 02:56:00
8:56 PM,37.0,32.0,82,30.00,6.0,West,26.5,34.5,0.00,Rain,Light Rain,270,2013-03-17 03:56:00
9:04 PM,33.8,30.2,87,29.96,3.0,West,18.4,31.1,0.02,Snow,Light Snow,280,2013-03-17 04:04:00
9:36 PM,33.8,30.2,87,29.97,10.0,WNW,15.0,25.3,0.02,,Mostly Cloudy,300,2013-03-17 04:36:00
9:56 PM,34.0,28.9,82,30.01,10.0,WNW,16.1,25.3,0.02,,Partly Cloudy,300,2013-03-17 04:56:00
10:56 PM,33.1,27.0,78,30.00,10.0,NW,10.4,-,N/A,,Clear,320,2013-03-17 05:56:00
11:56 PM,34.0,27.0,75,30.02,10.0,WNW,10.4,-,N/A,,Overcast,300,2013-03-17 06:56:00